Regional Weather Roundup
Issued by NWS

Home | Current Version | Previous Version | Text Only | Print | Product List | Glossary Off
Versions: 1 2 3 4 5 6 7 8 9 10 11 12 13 14 15 16 17 18 19 20 21 22 23 24 25 26 27 28 29 30 31 32 33 34 35 36 37 38 39 40 41 42 43 44 45 46 47 48 49 50

000
ASUS43 KDMX 241606
RWRIA

WEATHER ROUNDUP FOR IOWA
NATIONAL WEATHER SERVICE DES MOINES IA
1000 AM CST FRI FEB 24 2017

NOTE: "FAIR" INDICATES FEW OR NO CLOUDS BELOW 12,000 FEET WITH NO
SIGNIFICANT WEATHER AND/OR OBSTRUCTIONS TO VISIBILITY.

* - THESE STATIONS ARE NOT NWS STATIONS...THUS NOT UNDER NWS
QUALITY CONTROL.  THEY ALSO DO NOT REPORT WEATHER SUCH
AS PRECIPITATION OR FOG.

IAZ001>003-012>014-020>022-031>034-043>046-241700-
   NORTHWEST IOWA

CITY           SKY/WX    TMP DP  RH WIND       PRES   REMARKS
CARROLL *      MIX PCPN  25  25 100 N35       29.73R VSB 1/4 WCI   7
CHEROKEE *     CLOUDY    22  21  93 N20G30    29.82R WCI   8
DENISON *      HVY RAIN  23  21  93 N28G37    29.73R VSB 1/2 WCI   6
LE MARS *      MIX PCPN  23  19  86 N21G31    29.88R VSB 1/4 WCI   8
SHELDON *      CLOUDY    21  21 100 N25G32    29.84R FOG     WCI   4
SIOUX CITY     HAZE      25  20  81 N25G36    29.86R VSB 3/4 WCI   9
SPENCER        FOG       22  19  89 N22G30    29.82R VSB 1   WCI   6
STORM LAKE *   SNOW      21  19  93 N39G48    29.77R VSB 1/4 WCI   1
$$

IAZ055>058-069>071-079>083-090>094-241700-
   SOUTHWEST IOWA

CITY           SKY/WX    TMP DP  RH WIND       PRES   REMARKS
ATLANTIC *     CLOUDY    27  25  93 N29G39    29.72R FOG     WCI  11
CLARINDA *     CLOUDY    30  28  93 N26G33    29.72R WCI  16
COUNCIL BLFS * MIX PCPN  25  25 100 N22G37    29.75R WCI  10
CRESTON *      LGT RAIN  30  28  93 N21G32    29.66R WCI  17
HARLAN  *      MIX PCPN  25  25 100 MISG      29.77R
LAMONI         LGT SNOW  34  32  92 NW12      29.62R FOG     WCI  25
RED OAK *      PTSUNNY   28  27  93 N26G36    29.73R WCI  13
SHENANDOAH *   MIX PCPN  30  28  93 N21G30    29.74R WCI  17
$$

IAZ047>049-059>061-072>074-084-241700-
   CENTRAL IOWA

CITY           SKY/WX    TMP DP  RH WIND       PRES   REMARKS
AMES           CLOUDY    30  27  88 N20G30    29.65R WCI  17
ANKENY *       MIX PCPN  32  30  93 N16       29.66R WCI  21
BOONE *        PTSUNNY   28  28 100 N16G28    29.65R WCI  17
CHARITON *     LGT SNOW  34  32  93 N17       29.61R WCI  23
DES MOINES     LGT SNOW  33  30  88 N16G28    29.64R FOG     WCI  23
GRINNELL*      LGT RAIN  32  32  98 N16G26    29.59R WCI  21
KNOXVILLE *    PTSUNNY   34  32  93 N12G17    29.59R FOG     WCI  25
MARSHALLTOWN   FRZ RAIN  32  31  96 N20G29    29.60S FOG     WCI  20
NEWTON *       PTSUNNY   32  32 100 N20G26    29.60R FOG     WCI  20
PELLA *        DRIZZLE   34  33  95 N10G16    29.61R WCI  26
PERRY *        CLOUDY    29  27  92 N17G25    29.70R WCI  17
$$

IAZ004>006-015-016-023>025-035-036-241700-
   NORTH CENTRAL IOWA

CITY           SKY/WX    TMP DP  RH WIND       PRES   REMARKS
ALGONA *       FOG       23  23 100 N28G37    29.73F VSB<1/4 WCI   6
CLARION *      FOG       25  25 100 N26G35    29.69S VSB 1/4 WCI   9
ESTHERVILLE    FOG       20  19  96 N28G37    29.80S VSB 1/4 WCI   2
FORT DODGE *   CLOUDY    25  19  80 N16G23    29.72R WCI  12
MASON CITY     LGT SNOW  26  26 100 N26       29.70R FOG     WCI  10
FOREST CITY *  CLOUDY    27  25  93 N18G29    29.72R FOG     WCI  13
WEBSTER CITY * LGT RAIN  27  25  93 N29       29.66R VSB 1/2 WCI  11
IOWA FALLS *   LGT SNOW  30  27  89 N18G24    29.65R WCI  18
$$

IAZ007>011-017>019-026>030-037>042-050>054-066-241700-
   NORTHEAST IOWA

CITY           SKY/WX    TMP DP  RH WIND       PRES   REMARKS
CEDAR RAPIDS   LGT RAIN  33  33 100 N15       29.54R FOG     WCI  23
CHARLES CITY * RAIN      28  30 100 N21G29    29.64F VSB 3/4 WCI  15
CLINTON *      CLOUDY    36  35  96 NE16      29.49R FOG     WCI  26
DECORAH *      LGT RAIN  30  27  86 NE14G26   29.63R WCI  20
DUBUQUE        MIX PCPN  32  31  96 N20G28    29.52R VSB 1   WCI  20
MONTICELLO *   LGT RAIN  32  32 100 NE15G23   29.54R WCI  22
OELWEIN *      MIX PCPN  30  30 100 NE20G29   29.60R WCI  18
WATERLOO       FRZ RAIN  31  29  92 N20G30    29.62R FOG     WCI  19
$$

IAZ064-065-067-068-078-241700-
   EAST CENTRAL IOWA

CITY           SKY/WX    TMP DP  RH WIND       PRES   REMARKS
DAVENPORT      CLOUDY    37  36  96 NE12      29.48R FOG     WCI  29
IOWA CITY      LGT RAIN  36  34  92 N10       29.55R FOG     WCI  28
MUSCATINE *    PTSUNNY   39  37  93 N12       29.52R FOG     WCI  32
QUAD CITIES    CLOUDY    41  37  86 N6        29.48R FOG
$$

IAZ062-063-075>077-085>089-095>099-241700-
   SOUTHEAST IOWA

CITY           SKY/WX    TMP DP  RH WIND       PRES   REMARKS
BURLINGTON     CLOUDY    41  41 100 NW10      29.50R
FAIRFIELD *    CLOUDY    37  36  93 N13       29.54R FOG     WCI  29
KEOKUK *       CLOUDY    41  39  93 W13       29.52R
OTTUMWA        CLOUDY    36  35  96 N18       29.56R WCI  26
WASHINGTON *   CLOUDY    36  36 100 N10       29.55R FOG     WCI  28
$$

ABBREVIATIONS USED IN REMARKS
   TC - TEMPERATURES IN CELSIUS
  WCI - WIND CHILL INDEX
   HX - HEAT INDEX
  VSB - VISIBILITY
$$





USA.gov is the U.S. government's official web portal to all federal, state and local government web resources and services.